• în Republica Moldova
  • Lista ţărilor
  • Pe 7 zile
  • Temperatura apei
  • Hartă satelitară
  • Meteo pe hartă
  • Widget-uri
  • user-avatar
    Intrare

    Meteo pe oră la Klagenfurt

    Astăzi, 25 Februarie, Sâmbătă

    Timp Temperatura Precipitaţii Vânt Presiune Umiditate
    00:00 -1°C° 0,3 mm 2 m/s 688 mmHg 95%
    01:00 0°C° 0 mm 1 m/s 689 mmHg 95%
    02:00 0°C° 0 mm 1 m/s 689 mmHg 95%
    03:00 -1°C° 0 mm 1 m/s 689 mmHg 95%
    04:00 -3°C° 0 mm 2 m/s 690 mmHg 95%
    05:00 -4°C° 0 mm 2 m/s 690 mmHg 95%
    06:00 -5°C° 0 mm 2 m/s 690 mmHg 95%
    07:00 -5°C° 0 mm 2 m/s 691 mmHg 94%
    08:00 -4°C° 0 mm 2 m/s 691 mmHg 90%
    09:00 -2°C° 0 mm 2 m/s 692 mmHg 87%
    10:00 +1°C° 0 mm 2 m/s 693 mmHg 84%
    11:00 +1°C° 0 mm 2 m/s 693 mmHg 82%
    12:00 +3°C° 0 mm 1 m/s 693 mmHg 80%
    13:00 +4°C° 0 mm 1 m/s 693 mmHg 77%
    14:00 +4°C° 0 mm 1 m/s 693 mmHg 79%
    15:00 +4°C° 0 mm 1 m/s 692 mmHg 80%
    16:00 +4°C° 0 mm 1 m/s 692 mmHg 82%
    17:00 +1°C° 0 mm 1 m/s 692 mmHg 86%
    18:00 -2°C° 0 mm 1 m/s 691 mmHg 90%
    19:00 -4°C° 0 mm 1 m/s 691 mmHg 94%
    20:00 -4°C° 0 mm 1 m/s 691 mmHg 94%
    21:00 -4°C° 0 mm 1 m/s 691 mmHg 94%
    22:00 -4°C° 0 mm 1 m/s 691 mmHg 94%
    23:00 -4°C° 0 mm 1 m/s 691 mmHg 93%

    Mâine, 26 Februarie, Duminică

    Timp Temperatura Precipitaţii Vânt Presiune Umiditate
    00:00 -4°C° 0 mm 1 m/s 691 mmHg 93%
    01:00 -4°C° 0 mm 1 m/s 691 mmHg 92%
    02:00 -4°C° 0 mm 1 m/s 690 mmHg 91%
    03:00 -4°C° 0 mm 1 m/s 690 mmHg 90%
    04:00 -4°C° 0 mm 1 m/s 690 mmHg 88%
    05:00 -4°C° 0 mm 1 m/s 689 mmHg 85%
    06:00 -4°C° 0 mm 1 m/s 689 mmHg 82%
    07:00 -4°C° 0 mm 1 m/s 689 mmHg 79%
    08:00 -1°C° 0 mm 1 m/s 689 mmHg 76%
    09:00 +2°C° 0 mm 1 m/s 690 mmHg 72%
    10:00 +5°C° 0 mm 1 m/s 691 mmHg 69%
    11:00 +6°C° 0 mm 1 m/s 690 mmHg 68%
    12:00 +7°C° 0 mm 1 m/s 690 mmHg 68%
    13:00 +7°C° 0 mm 1 m/s 690 mmHg 67%
    14:00 +7°C° 0 mm 1 m/s 690 mmHg 72%
    15:00 +7°C° 0 mm 1 m/s 689 mmHg 77%
    16:00 +7°C° 0 mm 1 m/s 689 mmHg 82%
    17:00 +5°C° 0 mm 1 m/s 689 mmHg 85%
    18:00 +3°C° 0 mm 1 m/s 688 mmHg 87%
    19:00 +1°C° 0 mm 1 m/s 688 mmHg 90%
    20:00 +1°C° 0 mm 1 m/s 688 mmHg 89%
    21:00 +1°C° 0 mm 1 m/s 688 mmHg 87%
    22:00 +1°C° 0 mm 1 m/s 688 mmHg 86%
    23:00 +1°C° 0 mm 1 m/s 688 mmHg 85%

    Poimâine, 27 Februarie, Luni

    Timp Temperatura Precipitaţii Vânt Presiune Umiditate
    00:00 +1°C° 0 mm 1 m/s 688 mmHg 83%
    01:00 +1°C° 0 mm 1 m/s 688 mmHg 82%
    02:00 +1°C° 0 mm 1 m/s 687 mmHg 81%
    03:00 +1°C° 0 mm 1 m/s 687 mmHg 80%
    04:00 +1°C° 0 mm 1 m/s 687 mmHg 79%
    05:00 +1°C° 0 mm 1 m/s 687 mmHg 80%
    06:00 0°C° 0 mm 1 m/s 686 mmHg 82%
    07:00 0°C° 0 mm 1 m/s 686 mmHg 83%
    08:00 +2°C° 0 mm 1 m/s 687 mmHg 82%
    09:00 +4°C° 0 mm 1 m/s 687 mmHg 81%
    10:00 +6°C° 0 mm 1 m/s 687 mmHg 79%
    11:00 +6°C° 0 mm 2 m/s 687 mmHg 80%
    12:00 +6°C° 0 mm 2 m/s 686 mmHg 80%
    13:00 +7°C° 0 mm 2 m/s 686 mmHg 80%
    14:00 +7°C° 0 mm 2 m/s 685 mmHg 82%
    15:00 +6°C° 0 mm 2 m/s 685 mmHg 84%
    16:00 +6°C° 0 mm 2 m/s 684 mmHg 86%
    17:00 +4°C° 0 mm 2 m/s 684 mmHg 89%
    18:00 +3°C° 0 mm 2 m/s 684 mmHg 93%
    19:00 +1°C° 0 mm 2 m/s 684 mmHg 97%
    20:00 +1°C° 0 mm 2 m/s 684 mmHg 96%
    21:00 +1°C° 0 mm 2 m/s 684 mmHg 96%
    22:00 +1°C° 0 mm 2 m/s 684 mmHg 96%
    23:00 -1°C° 0 mm 2 m/s 684 mmHg 96%

    28 Februarie, Marţi

    Timp Temperatura Precipitaţii Vânt Presiune Umiditate
    00:00 -1°C° 0 mm 2 m/s 683 mmHg 95%
    01:00 -1°C° 0 mm 2 m/s 683 mmHg 94%
    02:00 +1°C° 0 mm 2 m/s 683 mmHg 95%
    03:00 +1°C° 0 mm 2 m/s 682 mmHg 95%
    04:00 +2°C° 0 mm 2 m/s 682 mmHg 96%
    05:00 +2°C° 0,1 mm 2 m/s 682 mmHg 95%
    06:00 +2°C° 0,1 mm 2 m/s 682 mmHg 95%
    07:00 +2°C° 0,1 mm 2 m/s 682 mmHg 95%
    08:00 +2°C° 0,1 mm 3 m/s 682 mmHg 93%
    09:00 +3°C° 0,1 mm 3 m/s 682 mmHg 91%
    10:00 +4°C° 0,1 mm 3 m/s 682 mmHg 89%
    11:00 +4°C° 0,3 mm 3 m/s 681 mmHg 90%
    12:00 +4°C° 0,3 mm 3 m/s 680 mmHg 90%
    13:00 +4°C° 0,3 mm 4 m/s 680 mmHg 91%
    14:00 +4°C° 0,5 mm 4 m/s 679 mmHg 91%
    15:00 +5°C° 0,5 mm 4 m/s 678 mmHg 91%
    16:00 +5°C° 0,5 mm 4 m/s 678 mmHg 92%
    17:00 +4°C° 0,5 mm 4 m/s 678 mmHg 93%
    18:00 +4°C° 0,5 mm 4 m/s 677 mmHg 93%
    19:00 +4°C° 0,5 mm 4 m/s 677 mmHg 94%
    20:00 +4°C° 0,8 mm 4 m/s 677 mmHg 94%
    21:00 +4°C° 0,8 mm 3 m/s 678 mmHg 94%
    22:00 +3°C° 0,8 mm 3 m/s 678 mmHg 94%
    23:00 +3°C° 2,3 mm 3 m/s 678 mmHg 94%

    1 Martie, Miercuri

    Timp Temperatura Precipitaţii Vânt Presiune Umiditate
    00:00 +3°C° 2,3 mm 2 m/s 678 mmHg 94%
    01:00 +2°C° 2,3 mm 2 m/s 679 mmHg 94%
    02:00 +2°C° 1,3 mm 2 m/s 679 mmHg 93%
    03:00 +1°C° 1,3 mm 2 m/s 680 mmHg 92%
    04:00 -1°C° 1,3 mm 2 m/s 681 mmHg 91%
    05:00 0°C° 0 mm 1 m/s 682 mmHg 90%
    06:00 -1°C° 0 mm 1 m/s 684 mmHg 89%
    07:00 -2°C° 0 mm 1 m/s 685 mmHg 87%
    08:00 0°C° 0 mm 1 m/s 686 mmHg 84%
    09:00 +2°C° 0 mm 1 m/s 687 mmHg 80%
    10:00 +4°C° 0 mm 1 m/s 688 mmHg 76%
    11:00 +5°C° 0 mm 1 m/s 689 mmHg 76%
    12:00 +4°C° 0 mm 2 m/s 689 mmHg 77%
    13:00 +5°C° 0 mm 2 m/s 689 mmHg 77%
    14:00 +5°C° 0 mm 2 m/s 689 mmHg 78%
    15:00 +5°C° 0 mm 2 m/s 688 mmHg 79%
    16:00 +5°C° 0 mm 2 m/s 688 mmHg 81%
    17:00 +3°C° 0 mm 2 m/s 688 mmHg 84%
    18:00 +2°C° 0 mm 2 m/s 688 mmHg 88%
    19:00 +1°C° 0 mm 1 m/s 688 mmHg 92%
    20:00 +1°C° 0 mm 1 m/s 688 mmHg 92%
    21:00 +1°C° 0 mm 1 m/s 688 mmHg 92%
    22:00 0°C° 0 mm 1 m/s 688 mmHg 93%
    23:00 -2°C° 0 mm 2 m/s 688 mmHg 92%

    2 Martie, Joi

    Timp Temperatura Precipitaţii Vânt Presiune Umiditate
    00:00 -2°C° 0 mm 2 m/s 688 mmHg 91%
    01:00 -2°C° 0 mm 2 m/s 688 mmHg 91%
    02:00 0°C° 0 mm 1 m/s 688 mmHg 90%
    03:00 0°C° 0 mm 1 m/s 688 mmHg 88%
    04:00 0°C° 0 mm 1 m/s 688 mmHg 87%
    05:00 0°C° 0 mm 1 m/s 688 mmHg 86%
    06:00 0°C° 0 mm 1 m/s 689 mmHg 85%
    07:00 0°C° 0 mm 1 m/s 689 mmHg 84%
    08:00 +2°C° 0 mm 1 m/s 689 mmHg 81%
    09:00 +4°C° 0 mm 1 m/s 690 mmHg 78%
    10:00 +7°C° 0 mm 1 m/s 691 mmHg 75%
    11:00 +8°C° 0 mm 1 m/s 691 mmHg 73%
    12:00 +8°C° 0 mm 1 m/s 690 mmHg 72%
    13:00 +9°C° 0 mm 1 m/s 690 mmHg 70%
    14:00 +9°C° 0 mm 1 m/s 690 mmHg 73%
    15:00 +9°C° 0 mm 1 m/s 690 mmHg 77%
    16:00 +9°C° 0 mm 1 m/s 690 mmHg 80%
    17:00 +7°C° 0 mm 1 m/s 690 mmHg 85%
    18:00 +4°C° 0 mm 1 m/s 689 mmHg 90%
    19:00 +2°C° 0 mm 1 m/s 689 mmHg 95%
    20:00 +2°C° 0 mm 1 m/s 689 mmHg 95%
    21:00 +2°C° 0 mm 1 m/s 689 mmHg 95%
    22:00 +1°C° 0 mm 1 m/s 689 mmHg 96%
    23:00 +1°C° 0 mm 1 m/s 689 mmHg 96%
    Arată mai mult